TimePDT,TemperatureF,Dew PointF,Humidity,Sea Level PressureIn,VisibilityMPH,Wind Direction,Wind SpeedMPH,Gust SpeedMPH,PrecipitationIn,Events,Conditions,WindDirDegrees,DateUTC
7:55 AM,48.2,44.6,87,30.23,10.0,SSE,3.5,-,N/A,,Overcast,150,2013-03-15 14:55:00
8:15 AM,48.2,44.6,87,30.23,10.0,SE,3.5,-,N/A,,Overcast,140,2013-03-15 15:15:00
8:35 AM,50.0,44.6,82,30.23,10.0,SE,5.8,-,N/A,,Overcast,130,2013-03-15 15:35:00
8:55 AM,50.0,44.6,82,30.23,10.0,SSE,6.9,-,N/A,,Overcast,150,2013-03-15 15:55:00
9:15 AM,51.8,44.6,76,30.23,10.0,SSE,5.8,-,N/A,,Overcast,150,2013-03-15 16:15:00
9:35 AM,51.8,46.4,82,30.23,10.0,SSE,5.8,-,N/A,,Overcast,150,2013-03-15 16:35:00
9:55 AM,53.6,46.4,77,30.23,10.0,South,4.6,-,N/A,,Overcast,170,2013-03-15 16:55:00
10:15 AM,53.6,46.4,77,30.23,10.0,South,8.1,-,N/A,,Overcast,180,2013-03-15 17:15:00
10:35 AM,55.4,46.4,72,30.23,10.0,South,6.9,-,N/A,,Overcast,170,2013-03-15 17:35:00
10:55 AM,55.4,46.4,72,30.23,10.0,SE,6.9,-,N/A,,Overcast,140,2013-03-15 17:55:00
11:15 AM,57.2,46.4,67,30.23,10.0,SSE,6.9,-,N/A,,Overcast,160,2013-03-15 18:15:00
11:55 AM,59.0,46.4,63,30.23,10.0,South,9.2,-,N/A,,Unknown,180,2013-03-15 18:55:00
12:15 PM,59.0,46.4,63,30.23,10.0,SE,6.9,-,N/A,,Overcast,140,2013-03-15 19:15:00
12:35 PM,59.0,46.4,63,30.23,10.0,SE,8.1,-,N/A,,Overcast,130,2013-03-15 19:35:00
12:55 PM,60.8,46.4,59,30.23,10.0,South,4.6,-,N/A,,Overcast,170,2013-03-15 19:55:00
1:15 PM,60.8,46.4,59,30.22,10.0,SSE,5.8,-,N/A,,Overcast,150,2013-03-15 20:15:00
1:35 PM,60.8,46.4,59,30.22,10.0,SSE,5.8,-,N/A,,Overcast,160,2013-03-15 20:35:00
1:55 PM,60.8,46.4,59,30.22,10.0,SSW,4.6,-,N/A,,Overcast,200,2013-03-15 20:55:00
2:15 PM,60.8,46.4,59,30.22,10.0,South,6.9,-,N/A,,Overcast,180,2013-03-15 21:15:00
2:35 PM,60.8,46.4,59,30.21,10.0,Calm,Calm,-,N/A,,Overcast,0,2013-03-15 21:35:00
2:55 PM,59.0,48.2,67,30.20,10.0,Calm,Calm,-,N/A,,Overcast,0,2013-03-15 21:55:00
3:15 PM,60.8,46.4,59,30.19,10.0,SE,4.6,-,N/A,,Overcast,140,2013-03-15 22:15:00
3:35 PM,60.8,46.4,59,30.19,10.0,WSW,3.5,-,N/A,,Mostly Cloudy,240,2013-03-15 22:35:00
4:15 PM,53.6,48.2,82,30.19,3.0,Calm,Calm,-,0.11,,Overcast,0,2013-03-15 23:15:00
4:35 PM,55.4,51.8,88,30.19,10.0,Calm,Calm,-,0.11,,Overcast,0,2013-03-15 23:35:00
4:55 PM,57.2,51.8,82,30.19,10.0,Calm,Calm,-,0.11,,Mostly Cloudy,0,2013-03-15 23:55:00
5:15 PM,57.2,51.8,82,30.19,10.0,Calm,Calm,-,N/A,,Overcast,0,2013-03-16 00:15:00
5:35 PM,55.4,48.2,77,30.19,10.0,West,8.1,-,N/A,,Overcast,280,2013-03-16 00:35:00
5:55 PM,55.4,46.4,72,30.19,10.0,WNW,4.6,-,N/A,,Scattered Clouds,290,2013-03-16 00:55:00
6:15 PM,53.6,46.4,77,30.20,10.0,WNW,8.1,-,N/A,,Mostly Cloudy,290,2013-03-16 01:15:00
6:35 PM,53.6,46.4,77,30.19,10.0,Calm,Calm,-,N/A,,Overcast,0,2013-03-16 01:35:00
6:55 PM,53.6,46.4,77,30.19,10.0,WNW,4.6,-,N/A,,Overcast,300,2013-03-16 01:55:00
7:15 PM,51.8,46.4,82,30.20,10.0,WNW,3.5,-,N/A,,Overcast,300,2013-03-16 02:15:00
7:35 PM,51.8,46.4,82,30.20,10.0,WNW,4.6,-,N/A,,Overcast,300,2013-03-16 02:35:00
7:55 PM,51.8,44.6,76,30.20,10.0,WNW,5.8,-,N/A,,Overcast,300,2013-03-16 02:55:00
8:15 PM,51.8,44.6,76,30.20,10.0,WNW,3.5,-,N/A,,Overcast,300,2013-03-16 03:15:00
8:35 PM,51.8,44.6,76,30.20,10.0,WNW,4.6,-,N/A,,Overcast,300,2013-03-16 03:35:00
8:55 PM,50.0,44.6,82,30.20,10.0,NW,4.6,-,N/A,,Overcast,310,2013-03-16 03:55:00
9:15 PM,50.0,44.6,82,30.20,10.0,WNW,4.6,-,N/A,,Overcast,300,2013-03-16 04:15:00
9:35 PM,50.0,44.6,82,30.20,10.0,NW,3.5,-,N/A,,Overcast,310,2013-03-16 04:35:00
9:55 PM,48.2,44.6,87,30.20,10.0,NW,3.5,-,N/A,,Overcast,310,2013-03-16 04:55:00
10:55 PM,48.2,44.6,87,30.20,10.0,Calm,Calm,-,N/A,,Overcast,0,2013-03-16 05:55:00
11:15 PM,50.0,44.6,82,30.20,10.0,Calm,Calm,-,N/A,,Overcast,0,2013-03-16 06:15:00
11:35 PM,48.2,44.6,87,30.20,10.0,Calm,Calm,-,N/A,,Overcast,0,2013-03-16 06:35:00
11:55 PM,48.2,44.6,87,30.20,10.0,Calm,Calm,-,N/A,,Overcast,0,2013-03-16 06:55:00